sat.trackr.live / text

‹ back to catalog

UNKNOWN

NORAD 81536

UNKNOWN UNKNOWN UNKNOWN

§ Identity

Operator
Country
Launch date
Launch site
Launch vehicle
Mass (kg)
RCS (m²)

External: N2YO · Heavens-Above

§ Orbital elements

Epoch: 2026-09-17T09:06:11.488032Z

Period
114.63 min
Inclination
101.9672°
Eccentricity
0.0023400
Mean motion
12.56187137 rev/d
Perigee alt
1,420.4 km
Apogee alt
1,457.0 km
Semi-major
7,816.9 km
B*
3.4183e-3
RAAN
129.9343°
Arg perigee
79.3308°
Mean anomaly
96.5673°
Rev number
58,679

§ Raw data

UNKNOWN1 81536U          26260.37929963  .00000518  00000+0  34183-2 0  99912 81536 101.9672 129.9343 0023400  79.3308  96.5673 12.56187137586793

JSON: /api/v1/satellites/81536 · /tle

For live sub-satellite position, see the globe view (requires WebGL).

§ Visibility from observer

Set your observer location to see the next 7 days of passes ≥ 10°. The values pass through the URL so the page stays shareable.

No JS? Fill the form by hand. The geolocation button needs JavaScript.